Time,TemperatureF,DewpointF,PressureIn,WindDirection,WindDirectionDegrees,WindSpeedMPH,WindSpeedGustMPH,Humidity,HourlyPrecipIn,Conditions,Clouds,dailyrainin,SoftwareType,DateUTC
2013-02-25 00:00:00,64.6,63.7,29.57,East,87,3.0,4.0,97,0.00,,,0.00,Wunderground v.1.15,2013-02-25 06:00:00,
2013-02-25 00:10:00,64.8,63.9,29.57,ESE,122,2.0,2.0,97,0.00,,,0.00,Wunderground v.1.15,2013-02-25 06:10:00,
2013-02-25 00:15:00,64.9,64.0,29.57,East,98,2.0,4.0,97,0.00,,,0.00,Wunderground v.1.15,2013-02-25 06:15:00,
2013-02-25 00:20:00,65.0,64.1,29.58,East,88,2.0,3.0,97,0.00,,,0.00,Wunderground v.1.15,2013-02-25 06:20:00,
2013-02-25 00:25:00,65.0,64.1,29.57,ENE,77,3.0,3.0,97,0.00,,,0.00,Wunderground v.1.15,2013-02-25 06:25:00,
2013-02-25 00:35:00,65.2,64.3,29.57,SE,136,2.0,3.0,97,0.00,,,0.00,Wunderground v.1.15,2013-02-25 06:35:00,
2013-02-25 00:40:00,65.2,64.3,29.57,ENE,77,2.0,2.0,97,0.00,,,0.00,Wunderground v.1.15,2013-02-25 06:40:00,
2013-02-25 00:45:00,65.2,64.3,29.56,ESE,108,3.0,3.0,97,0.00,,,0.00,Wunderground v.1.15,2013-02-25 06:45:00,
2013-02-25 00:50:00,65.2,64.3,29.56,ESE,113,3.0,4.0,97,0.00,,,0.00,Wunderground v.1.15,2013-02-25 06:50:00,
2013-02-25 00:55:00,65.2,64.3,29.56,ESE,109,3.0,4.0,97,0.00,,,0.00,Wunderground v.1.15,2013-02-25 06:55:00,
2013-02-25 01:00:00,65.2,64.3,29.56,ESE,103,3.0,3.0,97,0.00,,,0.00,Wunderground v.1.15,2013-02-25 07:00:00,
2013-02-25 01:10:00,65.8,64.9,29.56,ESE,122,1.0,2.0,97,0.00,,,0.00,Wunderground v.1.15,2013-02-25 07:10:00,
2013-02-25 01:15:00,66.2,65.3,29.56,SW,226,2.0,2.0,97,0.00,,,0.00,Wunderground v.1.15,2013-02-25 07:15:00,
2013-02-25 01:20:00,66.3,65.4,29.56,SSE,160,2.0,2.0,97,0.00,,,0.00,Wunderground v.1.15,2013-02-25 07:20:00,
2013-02-25 01:25:00,66.2,65.3,29.55,SSE,161,4.0,5.0,97,0.00,,,0.00,Wunderground v.1.15,2013-02-25 07:25:00,
2013-02-25 01:30:00,66.2,65.3,29.55,SSE,155,4.0,4.0,97,0.00,,,0.00,Wunderground v.1.15,2013-02-25 07:30:00,
2013-02-25 01:40:00,66.0,65.1,29.55,SSE,159,3.0,3.0,97,0.00,,,0.00,Wunderground v.1.15,2013-02-25 07:40:00,
2013-02-25 01:45:00,66.0,65.1,29.55,South,174,2.0,5.0,97,0.00,,,0.00,Wunderground v.1.15,2013-02-25 07:45:00,
2013-02-25 01:50:00,65.9,65.0,29.55,SE,124,2.0,3.0,97,0.00,,,0.00,Wunderground v.1.15,2013-02-25 07:50:00,
2013-02-25 01:55:00,65.8,64.9,29.55,SSE,150,3.0,3.0,97,0.00,,,0.00,Wunderground v.1.15,2013-02-25 07:55:00,
2013-02-25 02:00:00,65.8,64.9,29.54,SSE,158,3.0,3.0,97,0.00,,,0.00,Wunderground v.1.15,2013-02-25 08:00:00,
2013-02-25 02:10:00,66.0,65.1,29.54,SSE,165,4.0,4.0,97,0.00,,,0.00,Wunderground v.1.15,2013-02-25 08:10:00,
2013-02-25 02:15:00,66.1,65.2,29.53,SSE,162,4.0,4.0,97,0.00,,,0.00,Wunderground v.1.15,2013-02-25 08:15:00,
2013-02-25 02:20:00,66.3,65.4,29.53,South,179,3.0,3.0,97,0.00,,,0.00,Wunderground v.1.15,2013-02-25 08:20:00,
2013-02-25 02:25:00,66.5,65.6,29.53,South,174,4.0,4.0,97,0.00,,,0.00,Wunderground v.1.15,2013-02-25 08:25:00,
2013-02-25 02:30:00,66.5,65.6,29.53,ESE,120,4.0,4.0,97,0.00,,,0.00,Wunderground v.1.15,2013-02-25 08:30:00,
2013-02-25 02:35:00,66.5,65.6,29.53,SSE,151,4.0,4.0,97,0.00,,,0.00,Wunderground v.1.15,2013-02-25 08:35:00,
2013-02-25 02:45:00,66.5,65.6,29.52,South,174,3.0,4.0,97,0.00,,,0.00,Wunderground v.1.15,2013-02-25 08:45:00,
2013-02-25 02:50:00,66.5,65.6,29.52,South,172,3.0,3.0,97,0.00,,,0.00,Wunderground v.1.15,2013-02-25 08:50:00,
2013-02-25 02:55:00,66.4,65.5,29.51,SSW,212,4.0,10.0,97,0.00,,,0.00,Wunderground v.1.15,2013-02-25 08:55:00,
2013-02-25 03:00:00,66.5,65.6,29.52,ESE,103,5.0,5.0,97,0.00,,,0.00,Wunderground v.1.15,2013-02-25 09:00:00,
2013-02-25 03:10:00,66.5,65.6,29.51,South,169,6.0,8.0,97,0.00,,,0.00,Wunderground v.1.15,2013-02-25 09:10:00,
2013-02-25 03:15:00,66.5,65.6,29.51,South,181,6.0,8.0,97,0.00,,,0.00,Wunderground v.1.15,2013-02-25 09:15:00,
2013-02-25 03:20:00,66.5,65.6,29.51,South,179,6.0,7.0,97,0.00,,,0.00,Wunderground v.1.15,2013-02-25 09:20:00,
2013-02-25 03:25:00,66.6,65.7,29.50,SSW,198,5.0,8.0,97,0.00,,,0.00,Wunderground v.1.15,2013-02-25 09:25:00,
2013-02-25 03:30:00,66.7,65.8,29.51,SW,228,6.0,6.0,97,0.00,,,0.00,Wunderground v.1.15,2013-02-25 09:30:00,
2013-02-25 03:35:00,66.8,65.9,29.50,SSW,192,5.0,8.0,97,0.00,,,0.00,Wunderground v.1.15,2013-02-25 09:35:00,
2013-02-25 03:40:00,66.9,66.0,29.50,SSW,203,6.0,6.0,97,0.00,,,0.00,Wunderground v.1.15,2013-02-25 09:40:00,
2013-02-25 03:50:00,67.1,66.2,29.50,South,179,6.0,7.0,97,0.00,,,0.00,Wunderground v.1.15,2013-02-25 09:50:00,
2013-02-25 03:55:00,67.3,66.4,29.50,SW,226,6.0,8.0,97,0.00,,,0.00,Wunderground v.1.15,2013-02-25 09:55:00,
2013-02-25 04:00:00,67.4,66.5,29.49,South,184,6.0,9.0,97,0.00,,,0.00,Wunderground v.1.15,2013-02-25 10:00:00,
2013-02-25 04:10:00,67.6,66.7,29.49,SSE,158,6.0,6.0,97,0.00,,,0.00,Wunderground v.1.15,2013-02-25 10:10:00,
2013-02-25 04:20:00,67.7,66.8,29.50,South,186,5.0,7.0,97,0.00,,,0.00,Wunderground v.1.15,2013-02-25 10:20:00,
2013-02-25 04:25:00,67.7,66.5,29.50,SW,226,5.0,7.0,96,0.00,,,0.00,Wunderground v.1.15,2013-02-25 10:25:00,
2013-02-25 04:30:00,67.8,66.6,29.50,SW,215,4.0,4.0,96,0.00,,,0.00,Wunderground v.1.15,2013-02-25 10:30:00,
2013-02-25 04:35:00,67.8,66.6,29.50,SW,235,3.0,4.0,96,0.00,,,0.00,Wunderground v.1.15,2013-02-25 10:35:00,
2013-02-25 04:40:00,67.9,66.7,29.50,SW,236,2.0,2.0,96,0.00,,,0.00,Wunderground v.1.15,2013-02-25 10:40:00,
2013-02-25 04:45:00,67.9,66.7,29.50,SW,215,3.0,3.0,96,0.00,,,0.00,Wunderground v.1.15,2013-02-25 10:45:00,
2013-02-25 04:55:00,68.1,66.9,29.50,SSW,211,3.0,3.0,96,0.00,,,0.00,Wunderground v.1.15,2013-02-25 10:55:00,
2013-02-25 05:00:00,68.1,66.9,29.50,SSE,162,4.0,4.0,96,0.00,,,0.00,Wunderground v.1.15,2013-02-25 11:00:00,
2013-02-25 05:10:00,68.2,67.0,29.50,SSW,207,3.0,4.0,96,0.00,,,0.00,Wunderground v.1.15,2013-02-25 11:10:00,
2013-02-25 05:15:00,68.2,67.0,29.50,South,184,2.0,4.0,96,0.00,,,0.00,Wunderground v.1.15,2013-02-25 11:15:00,
2013-02-25 05:25:00,68.2,67.0,29.51,South,174,1.0,2.0,96,0.00,,,0.00,Wunderground v.1.15,2013-02-25 11:25:00,
2013-02-25 05:30:00,68.3,66.8,29.50,SW,219,1.0,4.0,95,0.00,,,0.00,Wunderground v.1.15,2013-02-25 11:30:00,
2013-02-25 05:35:00,68.3,66.8,29.50,WSW,240,2.0,4.0,95,0.00,,,0.00,Wunderground v.1.15,2013-02-25 11:35:00,
2013-02-25 05:40:00,68.3,66.8,29.50,SSE,164,2.0,2.0,95,0.00,,,0.00,Wunderground v.1.15,2013-02-25 11:40:00,
2013-02-25 05:45:00,68.3,66.8,29.50,SW,222,2.0,2.0,95,0.00,,,0.00,Wunderground v.1.15,2013-02-25 11:45:00,
2013-02-25 05:50:00,68.3,66.8,29.50,West,270,2.0,2.0,95,0.00,,,0.00,Wunderground v.1.15,2013-02-25 11:50:00,
2013-02-25 06:00:00,68.3,66.8,29.51,SSW,209,2.0,2.0,95,0.00,,,0.00,Wunderground v.1.15,2013-02-25 12:00:00,
2013-02-25 06:10:00,68.4,66.9,29.51,WSW,240,2.0,3.0,95,0.00,,,0.00,Wunderground v.1.15,2013-02-25 12:10:00,
2013-02-25 06:15:00,68.4,66.9,29.51,SW,228,2.0,3.0,95,0.00,,,0.00,Wunderground v.1.15,2013-02-25 12:15:00,
2013-02-25 06:20:00,68.5,67.0,29.52,WSW,246,2.0,2.0,95,0.00,,,0.00,Wunderground v.1.15,2013-02-25 12:20:00,
2013-02-25 06:30:00,68.5,67.0,29.53,West,277,2.0,2.0,95,0.00,,,0.00,Wunderground v.1.15,2013-02-25 12:30:00,
2013-02-25 06:35:00,68.4,66.9,29.53,WSW,252,1.0,2.0,95,0.00,,,0.00,Wunderground v.1.15,2013-02-25 12:35:00,
2013-02-25 06:40:00,68.4,66.9,29.53,WSW,242,1.0,1.0,95,0.00,,,0.00,Wunderground v.1.15,2013-02-25 12:40:00,
2013-02-25 06:45:00,68.4,66.9,29.54,West,280,1.0,1.0,95,0.00,,,0.00,Wunderground v.1.15,2013-02-25 12:45:00,
2013-02-25 06:55:00,68.4,66.9,29.55,West,263,1.0,1.0,95,0.00,,,0.00,Wunderground v.1.15,2013-02-25 12:55:00,
2013-02-25 07:00:00,68.5,67.0,29.56,NW,316,2.0,2.0,95,0.00,,,0.00,Wunderground v.1.15,2013-02-25 13:00:00,
2013-02-25 07:05:00,68.5,67.0,29.56,NNW,333,3.0,7.0,95,0.00,,,0.00,Wunderground v.1.15,2013-02-25 13:05:00,
2013-02-25 07:15:00,68.7,66.9,29.57,WNW,300,4.0,6.0,94,0.00,,,0.00,Wunderground v.1.15,2013-02-25 13:15:00,
2013-02-25 07:20:00,68.8,67.0,29.57,West,273,4.0,4.0,94,0.00,,,0.00,Wunderground v.1.15,2013-02-25 13:20:00,
2013-02-25 07:25:00,69.0,67.2,29.58,SW,236,4.0,4.0,94,0.00,,,0.00,Wunderground v.1.15,2013-02-25 13:25:00,
2013-02-25 07:35:00,69.2,67.1,29.58,WNW,289,4.0,5.0,93,0.00,,,0.00,Wunderground v.1.15,2013-02-25 13:35:00,
2013-02-25 07:40:00,69.2,67.1,29.58,West,273,4.0,7.0,93,0.00,,,0.00,Wunderground v.1.15,2013-02-25 13:40:00,
2013-02-25 07:45:00,69.3,67.2,29.58,WNW,300,5.0,7.0,93,0.00,,,0.00,Wunderground v.1.15,2013-02-25 13:45:00,
2013-02-25 07:50:00,69.3,66.9,29.59,West,262,5.0,5.0,92,0.00,,,0.00,Wunderground v.1.15,2013-02-25 13:50:00,
2013-02-25 07:55:00,69.4,67.0,29.59,West,262,4.0,5.0,92,0.00,,,0.00,Wunderground v.1.15,2013-02-25 13:55:00,
2013-02-25 08:00:00,69.3,66.9,29.59,NW,312,3.0,3.0,92,0.00,,,0.00,Wunderground v.1.15,2013-02-25 14:00:00,
2013-02-25 08:10:00,69.6,66.9,29.60,WNW,287,2.0,7.0,91,0.00,,,0.00,Wunderground v.1.15,2013-02-25 14:10:00,
2013-02-25 08:20:00,69.9,66.2,29.60,NW,304,4.0,4.0,88,0.00,,,0.00,Wunderground v.1.15,2013-02-25 14:20:00,
2013-02-25 08:25:00,70.2,66.1,29.60,WNW,284,4.0,6.0,87,0.00,,,0.00,Wunderground v.1.15,2013-02-25 14:25:00,
2013-02-25 08:30:00,70.3,66.2,29.61,West,278,4.0,4.0,87,0.00,,,0.00,Wunderground v.1.15,2013-02-25 14:30:00,
2013-02-25 08:35:00,70.3,65.9,29.61,NW,323,4.0,4.0,86,0.00,,,0.00,Wunderground v.1.15,2013-02-25 14:35:00,
2013-02-25 08:40:00,70.2,65.5,29.61,NNW,337,5.0,5.0,85,0.00,,,0.00,Wunderground v.1.15,2013-02-25 14:40:00,
2013-02-25 08:45:00,70.1,65.4,29.61,NW,304,7.0,7.0,85,0.00,,,0.00,Wunderground v.1.15,2013-02-25 14:45:00,
2013-02-25 08:50:00,70.0,65.3,29.61,NW,311,6.0,14.0,85,0.00,,,0.00,Wunderground v.1.15,2013-02-25 14:50:00,
2013-02-25 08:55:00,69.4,64.0,29.63,NW,320,10.0,16.0,83,0.00,,,0.00,Wunderground v.1.15,2013-02-25 14:55:00,
2013-02-25 09:00:00,67.8,57.3,29.63,WNW,284,14.0,14.0,69,0.00,,,0.00,Wunderground v.1.15,2013-02-25 15:00:00,
2013-02-25 09:10:00,66.6,46.3,29.64,NNE,26,13.0,13.0,48,0.00,,,0.00,Wunderground v.1.15,2013-02-25 15:10:00,
2013-02-25 09:15:00,66.7,45.8,29.65,NW,314,13.0,14.0,47,0.00,,,0.00,Wunderground v.1.15,2013-02-25 15:15:00,
2013-02-25 09:25:00,66.8,44.2,29.65,NW,311,11.0,12.0,44,0.00,,,0.00,Wunderground v.1.15,2013-02-25 15:25:00,
2013-02-25 09:30:00,67.4,44.1,29.66,NW,324,11.0,13.0,43,0.00,,,0.00,Wunderground v.1.15,2013-02-25 15:30:00,
2013-02-25 09:35:00,67.7,39.0,29.66,NW,322,11.0,13.0,35,0.00,,,0.00,Wunderground v.1.15,2013-02-25 15:35:00,
2013-02-25 09:40:00,67.9,37.7,29.66,NNW,342,11.0,11.0,33,0.00,,,0.00,Wunderground v.1.15,2013-02-25 15:40:00,
2013-02-25 09:45:00,68.1,35.5,29.66,NNE,20,11.0,15.0,30,0.00,,,0.00,Wunderground v.1.15,2013-02-25 15:45:00,
2013-02-25 09:50:00,68.3,35.6,29.67,NNW,347,10.0,10.0,30,0.00,,,0.00,Wunderground v.1.15,2013-02-25 15:50:00,
2013-02-25 10:00:00,68.6,34.2,29.67,NNW,327,12.0,12.0,28,0.00,,,0.00,Wunderground v.1.15,2013-02-25 16:00:00,
2013-02-25 10:10:00,68.5,34.1,29.67,WNW,287,13.0,13.0,28,0.00,,,0.00,Wunderground v.1.15,2013-02-25 16:10:00,
2013-02-25 10:15:00,68.6,34.2,29.68,NW,305,13.0,18.0,28,0.00,,,0.00,Wunderground v.1.15,2013-02-25 16:15:00,
2013-02-25 10:20:00,68.8,33.4,29.68,WNW,286,12.0,19.0,27,0.00,,,0.00,Wunderground v.1.15,2013-02-25 16:20:00,
2013-02-25 10:30:00,69.4,31.0,29.68,NNW,332,12.0,12.0,24,0.00,,,0.00,Wunderground v.1.15,2013-02-25 16:30:00,
2013-02-25 10:35:00,69.2,31.9,29.68,NNW,335,11.0,12.0,25,0.00,,,0.00,Wunderground v.1.15,2013-02-25 16:35:00,
2013-02-25 10:40:00,69.4,32.0,29.67,West,276,11.0,11.0,25,0.00,,,0.00,Wunderground v.1.15,2013-02-25 16:40:00,
2013-02-25 10:45:00,69.5,31.1,29.67,NW,312,11.0,14.0,24,0.00,,,0.00,Wunderground v.1.15,2013-02-25 16:45:00,
2013-02-25 10:50:00,69.4,31.0,29.68,NNW,335,13.0,15.0,24,0.00,,,0.00,Wunderground v.1.15,2013-02-25 16:50:00,
2013-02-25 10:55:00,69.8,33.3,29.68,NNW,331,12.0,15.0,26,0.00,,,0.00,Wunderground v.1.15,2013-02-25 16:55:00,
2013-02-25 11:00:00,70.0,29.4,29.68,NW,309,12.0,12.0,22,0.00,,,0.00,Wunderground v.1.15,2013-02-25 17:00:00,
2013-02-25 11:10:00,70.3,27.3,29.69,NW,314,12.0,14.0,20,0.00,,,0.00,Wunderground v.1.15,2013-02-25 17:10:00,
2013-02-25 11:15:00,70.1,24.6,29.69,NNW,343,14.0,14.0,18,0.00,,,0.00,Wunderground v.1.15,2013-02-25 17:15:00,
2013-02-25 11:20:00,70.1,24.6,29.69,West,271,14.0,14.0,18,0.00,,,0.00,Wunderground v.1.15,2013-02-25 17:20:00,
2013-02-25 11:25:00,70.3,23.4,29.69,WNW,301,14.0,17.0,17,0.00,,,0.00,Wunderground v.1.15,2013-02-25 17:25:00,
2013-02-25 11:35:00,70.9,22.4,29.70,NW,325,13.0,14.0,16,0.00,,,0.00,Wunderground v.1.15,2013-02-25 17:35:00,
2013-02-25 11:40:00,70.8,20.8,29.69,NNW,336,14.0,17.0,15,0.00,,,0.00,Wunderground v.1.15,2013-02-25 17:40:00,
2013-02-25 11:45:00,70.8,20.8,29.69,WNW,300,14.0,17.0,15,0.00,,,0.00,Wunderground v.1.15,2013-02-25 17:45:00,
2013-02-25 11:50:00,71.1,17.7,29.68,West,271,14.0,14.0,13,0.00,,,0.00,Wunderground v.1.15,2013-02-25 17:50:00,
2013-02-25 11:55:00,70.9,19.3,29.68,NNW,332,14.0,21.0,14,0.00,,,0.00,Wunderground v.1.15,2013-02-25 17:55:00,
2013-02-25 12:00:00,71.2,17.8,29.69,WNW,297,15.0,17.0,13,0.00,,,0.00,Wunderground v.1.15,2013-02-25 18:00:00,
2013-02-25 12:10:00,71.4,16.1,29.69,WNW,285,15.0,15.0,12,0.00,,,0.00,Wunderground v.1.15,2013-02-25 18:10:00,
2013-02-25 12:15:00,71.4,16.1,29.68,West,273,14.0,15.0,12,0.00,,,0.00,Wunderground v.1.15,2013-02-25 18:15:00,
2013-02-25 12:20:00,71.3,16.0,29.69,NNW,335,14.0,14.0,12,0.00,,,0.00,Wunderground v.1.15,2013-02-25 18:20:00,
2013-02-25 12:25:00,71.0,15.8,29.69,NW,305,15.0,15.0,12,0.00,,,0.00,Wunderground v.1.15,2013-02-25 18:25:00,
2013-02-25 12:30:00,71.4,16.1,29.69,WNW,294,13.0,14.0,12,0.00,,,0.00,Wunderground v.1.15,2013-02-25 18:30:00,
2013-02-25 12:40:00,71.5,16.2,29.68,NW,316,13.0,22.0,12,0.00,,,0.00,Wunderground v.1.15,2013-02-25 18:40:00,
2013-02-25 12:45:00,71.2,15.9,29.68,NNW,332,14.0,22.0,12,0.00,,,0.00,Wunderground v.1.15,2013-02-25 18:45:00,
2013-02-25 12:50:00,71.5,12.0,29.69,West,278,14.0,14.0,10,0.00,,,0.00,Wunderground v.1.15,2013-02-25 18:50:00,
2013-02-25 12:55:00,71.6,14.2,29.68,WNW,288,14.0,14.0,11,0.00,,,0.00,Wunderground v.1.15,2013-02-25 18:55:00,
2013-02-25 13:00:00,71.4,11.9,29.68,NW,318,16.0,17.0,10,0.00,,,0.00,Wunderground v.1.15,2013-02-25 19:00:00,
2013-02-25 13:10:00,71.1,11.7,29.67,NW,324,16.0,16.0,10,0.00,,,0.00,Wunderground v.1.15,2013-02-25 19:10:00,
2013-02-25 13:15:00,71.6,12.1,29.68,WNW,290,15.0,16.0,10,0.00,,,0.00,Wunderground v.1.15,2013-02-25 19:15:00,
2013-02-25 13:20:00,72.3,12.6,29.68,WNW,286,13.0,14.0,10,0.00,,,0.00,Wunderground v.1.15,2013-02-25 19:20:00,
2013-02-25 13:25:00,72.4,10.3,29.68,NW,325,13.0,24.0,9,0.00,,,0.00,Wunderground v.1.15,2013-02-25 19:25:00,
2013-02-25 13:30:00,72.1,7.5,29.67,WNW,300,15.0,21.0,8,0.00,,,0.00,Wunderground v.1.15,2013-02-25 19:30:00,
2013-02-25 13:35:00,71.9,9.9,29.67,NNW,328,15.0,21.0,9,0.00,,,0.00,Wunderground v.1.15,2013-02-25 19:35:00,
2013-02-25 13:45:00,71.7,9.8,29.67,WNW,285,15.0,21.0,9,0.00,,,0.00,Wunderground v.1.15,2013-02-25 19:45:00,
2013-02-25 13:50:00,71.1,9.3,29.67,NW,314,18.0,18.0,9,0.00,,,0.00,Wunderground v.1.15,2013-02-25 19:50:00,
2013-02-25 13:55:00,71.3,11.8,29.67,North,4,15.0,18.0,10,0.00,,,0.00,Wunderground v.1.15,2013-02-25 19:55:00,
2013-02-25 14:00:00,71.6,14.2,29.66,WNW,295,11.0,13.0,11,0.00,,,0.00,Wunderground v.1.15,2013-02-25 20:00:00,
2013-02-25 14:10:00,71.5,9.6,29.66,WNW,298,14.0,18.0,9,0.00,,,0.00,Wunderground v.1.15,2013-02-25 20:10:00,
2013-02-25 14:20:00,71.2,11.8,29.66,WNW,302,13.0,13.0,10,0.00,,,0.00,Wunderground v.1.15,2013-02-25 20:20:00,
2013-02-25 14:25:00,70.9,15.7,29.66,West,281,13.0,13.0,12,0.00,,,0.00,Wunderground v.1.15,2013-02-25 20:25:00,
2013-02-25 14:30:00,71.1,13.9,29.66,West,272,13.0,13.0,11,0.00,,,0.00,Wunderground v.1.15,2013-02-25 20:30:00,
2013-02-25 14:35:00,71.0,15.8,29.66,WNW,282,12.0,13.0,12,0.00,,,0.00,Wunderground v.1.15,2013-02-25 20:35:00,
2013-02-25 14:40:00,70.7,15.5,29.67,NNW,346,14.0,14.0,12,0.00,,,0.00,Wunderground v.1.15,2013-02-25 20:40:00,
2013-02-25 14:50:00,69.8,14.8,29.67,WNW,303,18.0,19.0,12,0.00,,,0.00,Wunderground v.1.15,2013-02-25 20:50:00,
2013-02-25 14:55:00,69.9,18.5,29.67,NNW,332,17.0,19.0,14,0.00,,,0.00,Wunderground v.1.15,2013-02-25 20:55:00,
2013-02-25 15:00:00,70.2,18.7,29.67,NW,304,13.0,13.0,14,0.00,,,0.00,Wunderground v.1.15,2013-02-25 21:00:00,
2013-02-25 15:10:00,69.6,22.8,29.67,NW,316,16.0,16.0,17,0.00,,,0.00,Wunderground v.1.15,2013-02-25 21:10:00,
2013-02-25 15:20:00,69.0,22.3,29.68,NW,323,16.0,16.0,17,0.00,,,0.00,Wunderground v.1.15,2013-02-25 21:20:00,
2013-02-25 15:25:00,68.4,23.2,29.68,WNW,300,17.0,17.0,18,0.00,,,0.00,Wunderground v.1.15,2013-02-25 21:25:00,
2013-02-25 15:30:00,68.3,23.1,29.68,WNW,294,17.0,17.0,18,0.00,,,0.00,Wunderground v.1.15,2013-02-25 21:30:00,
2013-02-25 15:35:00,68.1,23.0,29.68,NW,321,16.0,17.0,18,0.00,,,0.00,Wunderground v.1.15,2013-02-25 21:35:00,
2013-02-25 15:40:00,68.3,23.1,29.68,WNW,297,15.0,15.0,18,0.00,,,0.00,Wunderground v.1.15,2013-02-25 21:40:00,
2013-02-25 15:45:00,68.5,23.3,29.68,WNW,287,14.0,15.0,18,0.00,,,0.00,Wunderground v.1.15,2013-02-25 21:45:00,
2013-02-25 15:55:00,68.5,24.6,29.67,WNW,294,14.0,21.0,19,0.00,,,0.00,Wunderground v.1.15,2013-02-25 21:55:00,
2013-02-25 16:00:00,68.6,23.4,29.67,NW,321,15.0,24.0,18,0.00,,,0.00,Wunderground v.1.15,2013-02-25 22:00:00,
2013-02-25 16:10:00,68.4,23.2,29.67,WNW,303,16.0,16.0,18,0.00,,,0.00,Wunderground v.1.15,2013-02-25 22:10:00,
2013-02-25 16:15:00,68.4,23.2,29.67,NW,323,14.0,16.0,18,0.00,,,0.00,Wunderground v.1.15,2013-02-25 22:15:00,
2013-02-25 16:20:00,68.2,23.0,29.68,WNW,297,15.0,15.0,18,0.00,,,0.00,Wunderground v.1.15,2013-02-25 22:20:00,
2013-02-25 16:30:00,68.3,23.1,29.68,NW,323,15.0,17.0,18,0.00,,,0.00,Wunderground v.1.15,2013-02-25 22:30:00,
2013-02-25 16:35:00,67.7,22.6,29.70,WNW,295,15.0,22.0,18,0.00,,,0.00,Wunderground v.1.15,2013-02-25 22:35:00,
2013-02-25 16:40:00,67.2,23.5,29.69,NW,319,18.0,26.0,19,0.00,,,0.00,Wunderground v.1.15,2013-02-25 22:40:00,
2013-02-25 16:45:00,67.0,24.6,29.69,NW,310,17.0,26.0,20,0.00,,,0.00,Wunderground v.1.15,2013-02-25 22:45:00,
2013-02-25 16:50:00,67.0,23.3,29.69,West,278,13.0,18.0,19,0.00,,,0.00,Wunderground v.1.15,2013-02-25 22:50:00,
2013-02-25 16:55:00,66.7,24.3,29.69,West,267,14.0,18.0,20,0.00,,,0.00,Wunderground v.1.15,2013-02-25 22:55:00,
2013-02-25 17:00:00,66.5,24.2,29.70,WNW,298,15.0,15.0,20,0.00,,,0.00,Wunderground v.1.15,2013-02-25 23:00:00,
2013-02-25 17:10:00,65.9,23.7,29.70,North,356,16.0,20.0,20,0.00,,,0.00,Wunderground v.1.15,2013-02-25 23:10:00,
2013-02-25 17:15:00,65.6,23.4,29.70,WNW,298,17.0,20.0,20,0.00,,,0.00,Wunderground v.1.15,2013-02-25 23:15:00,
2013-02-25 17:20:00,65.3,24.3,29.71,NW,305,17.0,19.0,21,0.00,,,0.00,Wunderground v.1.15,2013-02-25 23:20:00,
2013-02-25 17:25:00,65.4,24.4,29.70,NW,312,15.0,19.0,21,0.00,,,0.00,Wunderground v.1.15,2013-02-25 23:25:00,
2013-02-25 17:35:00,65.5,24.5,29.71,NW,315,13.0,18.0,21,0.00,,,0.00,Wunderground v.1.15,2013-02-25 23:35:00,
2013-02-25 17:40:00,65.3,24.3,29.72,WNW,288,15.0,18.0,21,0.00,,,0.00,Wunderground v.1.15,2013-02-25 23:40:00,
2013-02-25 17:45:00,65.1,24.2,29.72,WNW,293,15.0,18.0,21,0.00,,,0.00,Wunderground v.1.15,2013-02-25 23:45:00,
2013-02-25 17:50:00,65.1,24.2,29.72,NW,309,13.0,13.0,21,0.00,,,0.00,Wunderground v.1.15,2013-02-25 23:50:00,
2013-02-25 17:55:00,65.0,24.1,29.71,NNW,335,10.0,13.0,21,0.00,,,0.00,Wunderground v.1.15,2013-02-25 23:55:00,
2013-02-25 18:00:00,64.9,24.0,29.72,NW,321,11.0,11.0,21,0.00,,,0.00,Wunderground v.1.15,2013-02-26 00:00:00,
2013-02-25 18:10:00,64.8,23.9,29.72,NW,314,14.0,17.0,21,0.00,,,0.00,Wunderground v.1.15,2013-02-26 00:10:00,
2013-02-25 18:15:00,64.6,23.7,29.73,West,279,14.0,17.0,21,0.00,,,0.00,Wunderground v.1.15,2013-02-26 00:15:00,
2013-02-25 18:20:00,64.5,23.7,29.72,NW,308,15.0,15.0,21,0.00,,,0.00,Wunderground v.1.15,2013-02-26 00:20:00,
2013-02-25 18:25:00,64.2,24.5,29.73,NW,304,13.0,15.0,22,0.00,,,0.00,Wunderground v.1.15,2013-02-26 00:25:00,
2013-02-25 18:30:00,64.0,24.4,29.73,NNE,14,12.0,13.0,22,0.00,,,0.00,Wunderground v.1.15,2013-02-26 00:30:00,
2013-02-25 18:40:00,64.0,24.4,29.73,North,11,12.0,22.0,22,0.00,,,0.00,Wunderground v.1.15,2013-02-26 00:40:00,
2013-02-25 18:45:00,64.0,24.4,29.73,NW,312,13.0,22.0,22,0.00,,,0.00,Wunderground v.1.15,2013-02-26 00:45:00,
2013-02-25 18:50:00,63.9,24.3,29.73,NW,321,12.0,12.0,22,0.00,,,0.00,Wunderground v.1.15,2013-02-26 00:50:00,
2013-02-25 18:55:00,63.9,24.3,29.73,West,279,11.0,12.0,22,0.00,,,0.00,Wunderground v.1.15,2013-02-26 00:55:00,
2013-02-25 19:00:00,64.0,24.4,29.73,NW,316,12.0,12.0,22,0.00,,,0.00,Wunderground v.1.15,2013-02-26 01:00:00,
2013-02-25 19:10:00,64.1,23.3,29.74,NNW,335,14.0,25.0,21,0.00,,,0.00,Wunderground v.1.15,2013-02-26 01:10:00,
2013-02-25 19:15:00,64.1,23.3,29.73,NW,308,16.0,25.0,21,0.00,,,0.00,Wunderground v.1.15,2013-02-26 01:15:00,
2013-02-25 19:20:00,64.1,23.3,29.74,NW,321,15.0,15.0,21,0.00,,,0.00,Wunderground v.1.15,2013-02-26 01:20:00,
2013-02-25 19:25:00,64.0,23.2,29.74,WNW,284,15.0,18.0,21,0.00,,,0.00,Wunderground v.1.15,2013-02-26 01:25:00,
2013-02-25 19:30:00,63.9,23.2,29.74,West,267,15.0,15.0,21,0.00,,,0.00,Wunderground v.1.15,2013-02-26 01:30:00,
2013-02-25 19:35:00,63.8,24.2,29.75,West,271,13.0,15.0,22,0.00,,,0.00,Wunderground v.1.15,2013-02-26 01:35:00,
2013-02-25 19:45:00,63.8,24.2,29.76,WNW,290,16.0,30.0,22,0.00,,,0.00,Wunderground v.1.15,2013-02-26 01:45:00,
2013-02-25 19:50:00,63.8,24.2,29.77,WNW,283,17.0,17.0,22,0.00,,,0.00,Wunderground v.1.15,2013-02-26 01:50:00,
2013-02-25 19:55:00,63.7,24.1,29.75,NNW,335,16.0,17.0,22,0.00,,,0.00,Wunderground v.1.15,2013-02-26 01:55:00,
2013-02-25 20:00:00,63.6,24.0,29.76,WNW,291,16.0,16.0,22,0.00,,,0.00,Wunderground v.1.15,2013-02-26 02:00:00,
2013-02-25 20:10:00,63.3,23.8,29.77,WNW,285,15.0,15.0,22,0.00,,,0.00,Wunderground v.1.15,2013-02-26 02:10:00,
2013-02-25 20:20:00,63.0,24.6,29.78,WNW,296,14.0,15.0,23,0.00,,,0.00,Wunderground v.1.15,2013-02-26 02:20:00,
2013-02-25 20:25:00,62.7,25.3,29.78,WNW,298,13.0,16.0,24,0.00,,,0.00,Wunderground v.1.15,2013-02-26 02:25:00,
2013-02-25 20:30:00,62.4,26.1,29.79,NW,308,10.0,10.0,25,0.00,,,0.00,Wunderground v.1.15,2013-02-26 02:30:00,
2013-02-25 20:35:00,62.3,26.0,29.80,NW,313,10.0,10.0,25,0.00,,,0.00,Wunderground v.1.15,2013-02-26 02:35:00,
2013-02-25 20:40:00,62.1,25.8,29.80,NW,308,11.0,13.0,25,0.00,,,0.00,Wunderground v.1.15,2013-02-26 02:40:00,
2013-02-25 20:50:00,61.7,26.4,29.80,NW,309,11.0,11.0,26,0.00,,,0.00,Wunderground v.1.15,2013-02-26 02:50:00,
2013-02-25 20:55:00,61.5,26.3,29.80,NW,313,10.0,11.0,26,0.00,,,0.00,Wunderground v.1.15,2013-02-26 02:55:00,
2013-02-25 21:00:00,61.3,27.0,29.80,NW,321,10.0,10.0,27,0.00,,,0.00,Wunderground v.1.15,2013-02-26 03:00:00,
2013-02-25 21:10:00,60.7,27.4,29.80,NNW,331,7.0,7.0,28,0.00,,,0.00,Wunderground v.1.15,2013-02-26 03:10:00,
2013-02-25 21:15:00,60.7,26.5,29.80,NW,321,9.0,13.0,27,0.00,,,0.00,Wunderground v.1.15,2013-02-26 03:15:00,
2013-02-25 21:25:00,60.5,27.2,29.81,NW,315,11.0,17.0,28,0.00,,,0.00,Wunderground v.1.15,2013-02-26 03:25:00,
2013-02-25 21:30:00,60.3,27.0,29.81,NW,315,10.0,10.0,28,0.00,,,0.00,Wunderground v.1.15,2013-02-26 03:30:00,
2013-02-25 21:35:00,60.0,26.8,29.81,WNW,300,8.0,10.0,28,0.00,,,0.00,Wunderground v.1.15,2013-02-26 03:35:00,
2013-02-25 21:40:00,59.9,26.7,29.81,NW,316,7.0,11.0,28,0.00,,,0.00,Wunderground v.1.15,2013-02-26 03:40:00,
2013-02-25 21:45:00,59.8,26.6,29.81,NW,321,8.0,11.0,28,0.00,,,0.00,Wunderground v.1.15,2013-02-26 03:45:00,
2013-02-25 21:55:00,59.8,27.4,29.81,WNW,297,9.0,16.0,29,0.00,,,0.00,Wunderground v.1.15,2013-02-26 03:55:00,
2013-02-25 22:00:00,59.7,27.4,29.81,NNW,330,10.0,10.0,29,0.00,,,0.00,Wunderground v.1.15,2013-02-26 04:00:00,
2013-02-25 22:10:00,59.4,27.1,29.82,WNW,291,9.0,9.0,29,0.00,,,0.00,Wunderground v.1.15,2013-02-26 04:10:00,
2013-02-25 22:15:00,59.2,27.7,29.82,NW,326,8.0,13.0,30,0.00,,,0.00,Wunderground v.1.15,2013-02-26 04:15:00,
2013-02-25 22:20:00,58.9,27.5,29.82,WNW,300,8.0,8.0,30,0.00,,,0.00,Wunderground v.1.15,2013-02-26 04:20:00,
2013-02-25 22:30:00,58.6,28.0,29.83,NNW,333,8.0,8.0,31,0.00,,,0.00,Wunderground v.1.15,2013-02-26 04:30:00,
2013-02-25 22:35:00,58.4,28.6,29.83,NW,313,8.0,10.0,32,0.00,,,0.00,Wunderground v.1.15,2013-02-26 04:35:00,
2013-02-25 22:40:00,58.2,28.5,29.83,North,350,8.0,8.0,32,0.00,,,0.00,Wunderground v.1.15,2013-02-26 04:40:00,
2013-02-25 22:45:00,58.2,28.5,29.83,NNW,329,9.0,9.0,32,0.00,,,0.00,Wunderground v.1.15,2013-02-26 04:45:00,
2013-02-25 22:50:00,58.0,28.3,29.83,NNW,330,9.0,9.0,32,0.00,,,0.00,Wunderground v.1.15,2013-02-26 04:50:00,
2013-02-25 23:00:00,57.3,28.4,29.83,NW,307,8.0,8.0,33,0.00,,,0.00,Wunderground v.1.15,2013-02-26 05:00:00,
2013-02-25 23:05:00,57.2,28.3,29.84,NW,314,9.0,11.0,33,0.00,,,0.00,Wunderground v.1.15,2013-02-26 05:05:00,
2013-02-25 23:10:00,57.3,28.4,29.84,NNW,333,10.0,10.0,33,0.00,,,0.00,Wunderground v.1.15,2013-02-26 05:10:00,
2013-02-25 23:15:00,57.1,28.2,29.84,NW,310,8.0,10.0,33,0.00,,,0.00,Wunderground v.1.15,2013-02-26 05:15:00,
2013-02-25 23:20:00,56.9,28.8,29.84,WNW,293,7.0,10.0,34,0.00,,,0.00,Wunderground v.1.15,2013-02-26 05:20:00,
2013-02-25 23:25:00,56.7,28.6,29.85,West,278,6.0,10.0,34,0.00,,,0.00,Wunderground v.1.15,2013-02-26 05:25:00,
2013-02-25 23:30:00,56.4,29.1,29.85,NW,308,5.0,6.0,35,0.00,,,0.00,Wunderground v.1.15,2013-02-26 05:30:00,
2013-02-25 23:35:00,56.2,29.6,29.85,NW,318,4.0,6.0,36,0.00,,,0.00,Wunderground v.1.15,2013-02-26 05:35:00,
2013-02-25 23:40:00,56.0,29.4,29.85,NW,308,4.0,6.0,36,0.00,,,0.00,Wunderground v.1.15,2013-02-26 05:40:00,
2013-02-25 23:45:00,55.9,29.3,29.85,NW,321,4.0,7.0,36,0.00,,,0.00,Wunderground v.1.15,2013-02-26 05:45:00,
2013-02-25 23:50:00,55.7,29.1,29.85,WNW,298,5.0,5.0,36,0.00,,,0.00,Wunderground v.1.15,2013-02-26 05:50:00,
2013-02-25 23:55:00,55.6,29.7,29.85,NW,313,5.0,6.0,37,0.00,,,0.00,Wunderground v.1.15,2013-02-26 05:55:00,